Weather History for Pinedale, WY

Change the Weather History Date:

Monday, December 31, 2012

  Actual Average (KBPI) Record (KBPI)
Temperature  
Mean Temperature -5 °F 11 °F  
Max Temperature 10 °F 26 °F 45 °F (1980)
Min Temperature -20 °F -2 °F -31 °F (1990)
Degree Days  
Heating Degree Days 70 54  
Month to date heating degree days 1626  
Since 1 July heating degree days 4439  
Cooling Degree Days 0 0  
Month to date cooling degree days 0  
Year to date cooling degree days 35  
Moisture  
Dew Point -12 °F    
Average Humidity 78    
Maximum Humidity 92    
Minimum Humidity 67    
Precipitation  
Precipitation 0.00 in 0.02 in 0.07 in (2005)
Month to date precipitation 0.30  
Year to date precipitation 6.48  
Sea Level Pressure  
Sea Level Pressure 29.94 in    
Wind  
Wind Speed 2 mph (East)    
Max Wind Speed 8 mph    
Max Gust Speed -    
Visibility 9 miles    
Events      
T = Trace of Precipitation, MM = Missing Value Source: NWS Daily Summary

Daily Weather History Graph

Daily Weather History Graph

Search for Another Location

Airport:

Trip Planner

Search our weather history database for the weather conditions in past years. The results will help you decide how hot, cold, wet, or windy it might be!

Date:

Astronomy

Dec. 31, 2012 Rise Set
Actual Time 7:49 AM MST 4:55 PM MST
Civil Twilight 7:17 AM MST 5:27 PM MST
Nautical Twilight 6:42 AM MST 6:03 PM MST
Astronomical Twilight 6:07 AM MST 6:37 PM MST
Moon 8:34 PM MST (12/31) 9:28 AM MST (12/31)
Length of Visible Light 10h 09m
Length of Day
9h 05m
Waning Gibbous, 90% of the Moon is Illuminated
Dec 31
Waning Gibbous
Jan 4
Last Quarter
Jan 11
New
Jan 18
First Quarter
Jan 26
Full

Hourly Weather History & Observations

Time (MST) Temp. Windchill Dew Point Humidity Pressure Visibility Wind Dir Wind Speed Gust Speed Precip Events Conditions
12:15 AM -7.6 °F -16.5 °F -13.0 °F 77% 29.93 in 10.0 mi WNW 3.5 mph - N/A   Clear
12:35 AM -9.4 °F -25.6 °F -14.8 °F 77% 29.93 in 10.0 mi West 8.1 mph - N/A   Clear
12:55 AM -11.2 °F -23.0 °F -14.8 °F 84% 29.93 in 10.0 mi West 4.6 mph - N/A   Clear
1:15 AM -7.6 °F -16.5 °F -13.0 °F 77% 29.93 in 10.0 mi West 3.5 mph - N/A   Clear
1:35 AM -11.2 °F - -16.6 °F 77% 29.92 in 10.0 mi Calm Calm - N/A   Clear
1:55 AM -7.6 °F - -13.0 °F 77% 29.92 in 10.0 mi Calm Calm - N/A   Clear
2:15 AM -11.2 °F - -16.6 °F 77% 29.92 in 10.0 mi Calm Calm - N/A   Clear
2:35 AM -16.6 °F - -22.0 °F 76% 29.92 in 10.0 mi Calm Calm - N/A   Clear
2:55 AM -14.8 °F - -20.2 °F 77% 29.92 in 10.0 mi Calm Calm - N/A   Clear
3:15 AM -13.0 °F - -16.6 °F 84% 29.91 in 10.0 mi Calm Calm - N/A   Clear
3:35 AM -13.0 °F - -18.4 °F 77% 29.91 in 10.0 mi Calm Calm - N/A   Clear
3:55 AM -16.6 °F -26.8 °F -22.0 °F 76% 29.91 in 10.0 mi West 3.5 mph - N/A   Clear
4:15 AM -18.4 °F -31.4 °F -25.6 °F 70% 29.90 in 10.0 mi WNW 4.6 mph - N/A   Clear
4:35 AM -18.4 °F -35.1 °F -23.8 °F 76% 29.90 in 10.0 mi WNW 6.9 mph - N/A   Clear
4:55 AM -14.8 °F - -18.4 °F 84% 29.90 in 10.0 mi Calm Calm - N/A   Clear
5:15 AM -14.8 °F - -18.4 °F 84% 29.91 in 10.0 mi Calm Calm - N/A   Clear
5:35 AM -18.4 °F - -23.8 °F 76% 29.90 in 10.0 mi Calm Calm - N/A   Clear
5:55 AM -18.4 °F -28.9 °F -23.8 °F 76% 29.90 in 10.0 mi East 3.5 mph - N/A   Clear
6:15 AM -18.4 °F - -23.8 °F 76% 29.90 in 5.0 mi Calm Calm - N/A   Haze
6:35 AM -18.4 °F - -23.8 °F 76% 29.90 in 10.0 mi Calm Calm - N/A   Clear
6:55 AM -20.2 °F - -25.6 °F 76% 29.91 in 10.0 mi Calm Calm - N/A   Clear
7:15 AM -18.4 °F - -23.8 °F 76% 29.91 in 10.0 mi Calm Calm - N/A   Scattered Clouds
7:35 AM -18.4 °F - -23.8 °F 76% 29.92 in 4.0 mi Calm Calm - N/A   Haze
7:55 AM -18.4 °F - -25.6 °F 70% 29.93 in 10.0 mi Calm Calm - N/A   Overcast
8:15 AM -18.4 °F - -23.8 °F 76% 29.93 in 0.2 mi Calm Calm - N/A   Haze
8:35 AM -16.6 °F - -22.0 °F 76% 29.95 in 0.2 mi Calm Calm - N/A   Haze
8:55 AM -16.6 °F - -22.0 °F 76% 29.95 in 0.8 mi Calm Calm - N/A   Haze
9:15 AM -13.0 °F - -18.4 °F 77% 29.95 in 1.0 mi Calm Calm - N/A   Haze
9:35 AM -13.0 °F - -18.4 °F 77% 29.96 in 10.0 mi Calm Calm - N/A   Scattered Clouds
9:55 AM -9.4 °F - -16.6 °F 71% 29.97 in 10.0 mi Calm Calm - N/A   Scattered Clouds
10:15 AM -7.6 °F - -13.0 °F 77% 29.97 in 10.0 mi Calm Calm - N/A   Clear
10:35 AM -5.8 °F - -11.2 °F 77% 29.97 in 10.0 mi Calm Calm - N/A   Clear
10:55 AM -4.0 °F - -7.6 °F 85% 29.97 in 10.0 mi Calm Calm - N/A   Clear
11:15 AM -0.4 °F -8.3 °F -5.8 °F 78% 29.97 in 10.0 mi NNW 3.5 mph - N/A   Clear
11:35 AM 1.4 °F -6.2 °F -4.0 °F 78% 29.97 in 10.0 mi NW 3.5 mph - N/A   Clear
11:55 AM 3.2 °F - -0.4 °F 85% 29.95 in 10.0 mi Calm Calm - N/A   Clear
12:15 PM 5.0 °F - 1.4 °F 85% 29.94 in 10.0 mi Calm Calm - N/A   Clear
12:35 PM 8.6 °F - 5.0 °F 85% 29.93 in 10.0 mi Calm Calm - N/A   Clear
12:55 PM 8.6 °F - 3.2 °F 79% 29.92 in 10.0 mi Calm Calm - N/A   Clear
1:15 PM 10.4 °F - 5.0 °F 79% 29.91 in 10.0 mi Calm Calm - N/A   Clear
1:35 PM 10.4 °F 2.2 °F 3.2 °F 73% 29.90 in 10.0 mi East 4.6 mph - N/A   Clear
1:55 PM 10.4 °F 0.8 °F 3.2 °F 73% 29.89 in 10.0 mi East 5.8 mph - N/A   Clear
2:15 PM 10.4 °F 0.8 °F 1.4 °F 67% 29.90 in 10.0 mi East 5.8 mph - N/A   Clear
2:35 PM 10.4 °F 4.0 °F 1.4 °F 67% 29.91 in 10.0 mi East 3.5 mph - N/A   Clear
2:55 PM 10.4 °F 4.0 °F 1.4 °F 67% 29.92 in 10.0 mi East 3.5 mph - N/A   Clear
3:15 PM 10.4 °F 4.0 °F 1.4 °F 67% 29.92 in 10.0 mi East 3.5 mph - N/A   Clear
3:35 PM 8.6 °F 0.1 °F -0.4 °F 67% 29.93 in 10.0 mi East 4.6 mph - N/A   Clear
3:55 PM 8.6 °F -2.6 °F -0.4 °F 67% 29.93 in 10.0 mi ESE 6.9 mph - N/A   Clear
4:15 PM 8.6 °F -1.3 °F -0.4 °F 67% 29.93 in 10.0 mi East 5.8 mph - N/A   Clear
4:35 PM 5.0 °F -8.1 °F -2.2 °F 72% 29.94 in 10.0 mi ESE 8.1 mph - N/A   Clear
4:55 PM 3.2 °F -7.8 °F -4.0 °F 72% 29.95 in 10.0 mi ESE 5.8 mph - N/A   Clear
5:15 PM 1.4 °F -9.9 °F -4.0 °F 78% 29.95 in 10.0 mi East 5.8 mph - N/A   Clear
5:35 PM -0.4 °F -8.3 °F -4.0 °F 85% 29.95 in 10.0 mi SE 3.5 mph - N/A   Clear
5:55 PM 1.4 °F - -4.0 °F 78% 29.96 in 10.0 mi Calm Calm - N/A   Clear
6:15 PM 1.4 °F -6.2 °F -4.0 °F 78% 29.96 in 10.0 mi SSE 3.5 mph - N/A   Clear
6:35 PM -0.4 °F - -4.0 °F 85% 29.97 in 10.0 mi Calm Calm - N/A   Clear
6:55 PM -5.8 °F - -9.4 °F 84% 29.97 in 10.0 mi Calm Calm - N/A   Clear
7:15 PM -5.8 °F - -7.6 °F 92% 29.97 in 10.0 mi Calm Calm - N/A   Clear
7:35 PM -5.8 °F - -9.4 °F 84% 29.96 in 10.0 mi Calm Calm - N/A   Clear
7:55 PM -7.6 °F - -11.2 °F 84% 29.96 in 10.0 mi Calm Calm - N/A   Clear
8:15 PM -4.0 °F - -7.6 °F 85% 29.96 in 10.0 mi Calm Calm - N/A   Clear
8:35 PM -7.6 °F -23.4 °F -13.0 °F 77% 29.95 in 10.0 mi NE 8.1 mph - N/A   Clear
8:55 PM -13.0 °F - -16.6 °F 84% 29.96 in 10.0 mi Calm Calm - N/A   Scattered Clouds
9:15 PM -9.4 °F -18.6 °F -13.0 °F 84% 29.97 in 10.0 mi ENE 3.5 mph - N/A   Clear
9:35 PM -11.2 °F -26.4 °F -14.8 °F 84% 29.97 in 10.0 mi NE 6.9 mph - N/A   Clear
10:15 PM -7.6 °F -20.6 °F -13.0 °F 77% 29.97 in 10.0 mi SE 5.8 mph - N/A   Scattered Clouds
10:35 PM -7.6 °F -20.6 °F -9.4 °F 92% 29.97 in 10.0 mi SE 5.8 mph - N/A   Scattered Clouds
11:15 PM -7.6 °F -18.8 °F -11.2 °F 84% 30.00 in 10.0 mi East 4.6 mph - N/A   Clear
11:35 PM -9.4 °F -22.7 °F -13.0 °F 84% 30.00 in 10.0 mi East 5.8 mph - N/A   Clear